Regional Weather Roundup
Issued by NWS

Home | Current Version | Previous Version | Text Only | Print | Product List | Glossary On
Versions: 1 2 3 4 5 6 7 8 9 10 11 12 13 14 15 16 17 18 19 20 21 22 23 24 25 26 27 28 29 30 31 32 33 34 35 36 37 38 39 40 41 42 43 44 45 46 47 48 49 50
000
ASUS43 KMKX 070500
RWRWI

WISCONSIN REGIONAL WEATHER ROUNDUP
NATIONAL WEATHER SERVICE MILWAUKEE/SULLIVAN WI
1100 PM CST TUE DEC 06 2016

NOTE: "FAIR" INDICATES FEW OR NO CLOUDS BELOW 12,000 FEET WITH NO
SIGNIFICANT WEATHER AND/OR OBSTRUCTIONS TO VISIBILITY.

WIZ001-002-006>008-014>016-023>028-070600-
NORTHWEST WISCONSIN

CITY           SKY/WX    TMP DP  RH WIND       PRES   REMARKS
SUPERIOR ARPT  FLURRIES  22  17  80 SW17G25   29.60R WCI   8
ASHLAND        FLURRIES  22  14  71 SW21G32   29.62R WCI   6
HAYWARD        LGT SNOW  19  12  74 SW16G25   29.66R WCI   4
SIREN          FLURRIES  20  12  72 W20G30    29.71R WCI   4
CUMBERLAND     FLURRIES  19  12  73 W21G29    29.71R WCI   3
RICE LAKE      LGT SNOW  20  14  76 SW15G23   29.75R WCI   6
CHETEK         LGT SNOW  19  14  79 MISG      29.74R
LADYSMITH      LGT SNOW  20  15  79 SW17G25   29.72R WCI   6
EAU CLAIRE     NOT AVBL
MENOMONIE      CLOUDY    20  12  73 SW18G24   29.81R WCI   4
NEW RICHMOND   FLURRIES  19  12  73 W20G28    29.78R WCI   4
OSCEOLA        FLURRIES  21  14  73 SW23G29   29.81R WCI   4
$$

WIZ003>005-009-010-017-018-070600-
NORTH CENTRAL WISCONSIN

CITY           SKY/WX    TMP DP  RH WIND       PRES   REMARKS
MANITOWISH WTR FLURRIES  19  15  84 SW18G28   29.60R WCI   4
ARBOR VITAE    LGT SNOW  22  16  79 SW14G26   29.62R WCI   9
WOODRUFF       LGT SNOW  22  16  79 SW14G26   29.62R WCI   9
RHINELANDER    FLURRIES  21  15  78 SW17G31   29.64S WCI   7
EAGLE RIVER    FLURRIES  20  14  76 SW18G28   29.61S WCI   5
LAND O LAKES   FLURRIES  21  15  79 SW8G21    29.61S WCI  11
PHILLIPS       LGT SNOW  19  14  84 SW17G23   29.65R WCI   3
TOMAHAWK       FLURRIES  20  14  77 SW8G21    29.67S WCI  10
MEDFORD        FLURRIES  19  13  77 SW20G26   29.70R WCI   3
MERRILL        FLURRIES  22  16  79 SW17G26   29.71R WCI   7
$$

WIZ029-030-035-036-043>047-070600-
CENTRAL WISCONSIN

CITY           SKY/WX    TMP DP  RH WIND       PRES   REMARKS
WAUSAU         FLURRIES  22  15  75 W15G24    29.73R WCI   9
MOSINEE        CLOUDY    23  19  86 SW17G26   29.75R WCI   9
MARSHFIELD     CLOUDY    21  13  71 W16G24    29.75R WCI   7
STEVENS POINT  CLOUDY    22  15  72 W14G21    29.78R WCI   9
WAUPACA        CLOUDY    27  18  69 SW15G22   29.81R WCI  16
WAUTOMA        CLOUDY    25  17  72 W17G24    29.83R WCI  12
WISC RAPIDS    CLOUDY    24  16  71 W14G26    29.81R WCI  12
CAMP DOUGLAS   NOT AVBL
$$

WIZ011>013-019>022-031-037>040-048>050-070600-
NORTHEAST WISCONSIN

CITY           SKY/WX    TMP DP  RH WIND       PRES   REMARKS
ANTIGO         CLOUDY    20  16  82 SW18G24   29.70R WCI   5
SHAWANO        CLOUDY    28  18  66 W16G25    29.77S WCI  15
OCONTO         CLOUDY    27  16  65 W15G24    29.76S WCI  15
STURGEON BAY   CLOUDY    27  18  69 W20G31    29.76R WCI  13
GREEN BAY      CLOUDY    29  19  66 W17       29.79R WCI  17
MANITOWOC      NOT AVBL
APPLETON       CLOUDY    27  16  63 SW18G29   29.78R WCI  13
CLINTONVILLE   CLOUDY    27  18  69 W18       29.78S WCI  13
OSHKOSH        CLOUDY    26  16  65 W12G23    29.82R WCI  16
$$

WIZ032>034-041-042-053>061-070600-
SOUTHWEST WISCONSIN

CITY           SKY/WX    TMP DP  RH WIND       PRES   REMARKS
LA CROSSE      CLOUDY    24  13  62 W18G25    29.92R WCI  10
SPARTA         CLOUDY    24  16  71 W17G25    29.87R WCI  10
VIROQUA        CLOUDY    22  17  79 W16G29    29.86R WCI   8
BOSCOBEL       MOCLDY    27  16  63 W9G18     29.94R WCI  17
PRAIRIE DU CHI CLOUDY    25  14  63 W17G23    29.95R WCI  11
PLATTEVILLE    CLEAR     24  17  75 W16G22    29.93R WCI  11
$$

WIZ056-057-062-063-064-067-068-070600-
SOUTH CENTRAL WISCONSIN

CITY           SKY/WX    TMP DP  RH WIND       PRES   REMARKS
REEDSBURG      CLOUDY    25  17  71 W14G23    29.87R WCI  13
BARABOO/DELLS  CLOUDY    25  16  68 W15G24    29.86R WCI  12
LONE ROCK      MOCLDY    25  15  66 W15G24    29.91R WCI  13
MINERAL POINT  PTCLDY    25  18  74 W18G24    29.89R WCI  11
MADISON        MOCLDY    25  15  66 W8G20     29.89R WCI  16
MIDDLETON      NOT AVBL
WATERTOWN      CLOUDY    26  19  72 SW14G20   29.88R WCI  15
MONROE         CLEAR     25  18  74 W22       29.90S WCI  10
JANESVILLE     PTCLDY    28  19  69 W15G24    29.92R WCI  17
$$

WIZ051-052-058>065-066-070>072-070600-
SOUTHEAST WISCONSIN

CITY           SKY/WX    TMP DP  RH WIND       PRES   REMARKS
MILWAUKEE      CLOUDY    30  17  58 W15G29    29.89R WCI  19
WAUKESHA       CLOUDY    27  19  74 W20G25    29.88S WCI  13
MILWAUKEE/TIMM CLOUDY    28  18  64 W16G23    29.88S WCI  17
RACINE         CLOUDY    28  18  66 W13G21    29.91S WCI  17
BURLINGTON     CLOUDY    27  19  70 W16G25    29.91S WCI  15
KENOSHA        MOCLDY    28  19  69 W17G24    29.90F WCI  16
FOND DU LAC    CLOUDY    27  16  63 SW15G25   29.84R WCI  15
SHEBOYGAN      CLOUDY    27  18  69 W21G29    29.83R WCI  13
WEST BEND      CLOUDY    28  19  69 SW16G22   29.84S WCI  17
JUNEAU         CLOUDY    25  18  74 SW16      29.87S WCI  13
$$

LSZ147-162-070600-
LAKE SUPERIOR

STATION/POSITION TIME  TEMP    WIND        PRES    WAVE
                       AIR SEA DIR/SP/G            HT/PER
                 (UTC) (F)     (DEG/KT/KT) (MB)    (FT/S)
DEVILS ISLAND    0400   25     230/ 29/ 36 1001.2R
PORT WING        0440   23     210/ 15/ 24 1002.4R
SAXON HARBOR     0430   24     200/ 12/ 24 1002.7R
$$

LMZ867-665-643>646-070600-
LAKE MICHIGAN

STATION/POSITION TIME  TEMP    WIND        PRES    WAVE
                       AIR SEA DIR/SP/G            HT/PER
                 (UTC) (F)     (DEG/KT/KT) (MB)    (FT/S)
CHAMBERS ISLAND  0440   28     220/ 11/ 22 1006.4S
NORTHPORT PIER   0440   28     230/  6/ 16 1006.8R
SISTER BAY       0353   29     260/ 24/ 30   N/A
ALGOMA LAKESHORE 0336          280/ 15/ 24   N/A
KEWAUNEE LAKESHO 0430   28     310/ 16/ 27 1008.2R
SHEBOYGAN LAKESH 0400   28     260/ 19/ 21 1010.5R
PORT WASHINGTON  0440   29     260/ 13/ 22 1012.2R
MILWAUKEE LAKESH 0430   29     250/ 13/ 18   N/A
KENOSHA   LAKESH 0400   29     260/ 15/ 25 1013.2
$$

TC  - TEMPERATURE IN CELSIUS
VSB - VISIBILITY IN STATUTE MILES
WCI - WIND CHILL INDEX
HX  - HEAT INDEX




USA.gov is the U.S. government's official web portal to all federal, state and local government web resources and services.